Location: Beneden-Haastrecht
(52.0012°N, 4.7557°E)
Time: 02:42:06
(UTC+00:00)

Cosmos 1726 Rocket - Pass Details

Date: 24 October 2020
Orbit: 604 x 629 km, 82.5° (Epoch: 24 November)

Event Time Altitude Azimuth Distance (km) Brightness Sun altitude
Rises 17:40:03 0° 177° (S) 2,855 7.0 -11.8°
Reaches altitude 10° 17:42:16 10° 173° (S) 1,960 6.1 -12.1°
Maximum altitude 17:46:31 56° 95° (E) 735 3.6 -12.8°
Drops below altitude 10° 17:50:49 10° 18° (NNE) 1,990 6.0 -13.4°
Sets 17:53:05 0° 14° (NNE) 2,905 6.8 -13.8°
